2018-102M (43842 NORAD) Tracking and Keplerian Element Data

This shows tracking and keplerian element data for the satellite.

Feedback or suggestion? Click here.




ElementValue
Catalog43842
Name2018-102M
Epoch Orbit10018
Epoch Day275.15681939
Epoch Year2020
RAAN348.6919
Inclination97.5319
Eccentricity0.0008949
Argument of Perigee188.0445
Mean Anonmoly229.0021
Mean Motion15.10420566
Decay Rate1.747E-05
L11 43842U 18102M 20275.15681939 .00001747 00000-0 11011-3 0 9997
L22 43842 97.5319 348.6919 0008949 188.0445 229.0021 15.10420566100183



Live tracking and technical data element details for 2018-102M (NORAD 43842). 2018-102M can be tracked NOW for your location showing map with azimuth and elevation plus other details from your city location.







IsCatalogInMostPopularTable: catalog: 43842, numindb: 311
Update: records affected: 1



GetName: 43842 2018-102M

Hit Count: updated at: Thu, 15 May 2025 19:19:23 GMT